N5NC SKSP-MRLM

Flight info

Callsign N5NC
Flight time 0h 37m
Altitude 18000
Route UGEVA1A UGEVA B690 LIO
Aircraft C525/L-SDFGRWYZ/LB1

Departure

Time 2026-04-24 23:07
Airport Gustavo Rojas Pinilla International Airport (SKSP)

Arrival

Time 2026-04-24 23:45
Airport Limón International Airport (MRLM)
Time Latitude Longitude Altitude Speed Heading
2026-04-24 22:57 12.58724 -81.70197 14 ft 0 kts 150°
2026-04-24 23:05 12.58728 -81.70193 14 ft 5 kts 11°
2026-04-24 23:05 12.58793 -81.70212 14 ft 10 kts 339°
2026-04-24 23:06 12.58874 -81.70204 14 ft 13 kts 57°
2026-04-24 23:06 12.58883 -81.70215 14 ft 0 kts 240°
2026-04-24 23:06 12.58835 -81.70300 14 ft 41 kts 239°
2026-04-24 23:07 12.58591 -81.70724 18 ft 94 kts 239°
2026-04-24 23:07 12.58199 -81.71423 133 ft 120 kts 242°
2026-04-24 23:07 12.57811 -81.72185 491 ft 124 kts 243°
2026-04-24 23:07 12.57354 -81.73003 676 ft 147 kts 236°
2026-04-24 23:08 12.56771 -81.73927 1030 ft 160 kts 236°
2026-04-24 23:08 12.56149 -81.74908 1411 ft 171 kts 235°
2026-04-24 23:08 12.55465 -81.75959 1802 ft 182 kts 230°
2026-04-24 23:08 12.54380 -81.76612 2176 ft 189 kts 189°
2026-04-24 23:09 12.53039 -81.76708 2577 ft 199 kts 179°
2026-04-24 23:09 12.51598 -81.76659 2958 ft 210 kts 176°
2026-04-24 23:09 12.50103 -81.76572 3334 ft 221 kts 175°
2026-04-24 23:09 12.48530 -81.76466 3719 ft 231 kts 175°
2026-04-24 23:10 12.46902 -81.76509 4063 ft 241 kts 194°
2026-04-24 23:10 12.45330 -81.77173 4481 ft 246 kts 204°
2026-04-24 23:10 12.43773 -81.77921 4975 ft 248 kts 206°
2026-04-24 23:10 12.42218 -81.78697 5450 ft 249 kts 207°
2026-04-24 23:11 12.40639 -81.79494 5937 ft 251 kts 208°
2026-04-24 23:11 12.38554 -81.80552 6583 ft 251 kts 207°
2026-04-24 23:11 12.37511 -81.81081 6899 ft 251 kts 208°
2026-04-24 23:11 12.35945 -81.81876 7379 ft 251 kts 208°
2026-04-24 23:12 12.34389 -81.82665 7855 ft 250 kts 208°
2026-04-24 23:12 12.32833 -81.83456 8327 ft 249 kts 208°
2026-04-24 23:12 12.31293 -81.84238 8796 ft 248 kts 208°
2026-04-24 23:12 12.29749 -81.85022 9268 ft 246 kts 208°
2026-04-24 23:13 12.28224 -81.85796 9737 ft 244 kts 209°
2026-04-24 23:13 12.26706 -81.86566 10212 ft 241 kts 208°
2026-04-24 23:13 12.25212 -81.87324 10682 ft 239 kts 208°
2026-04-24 23:13 12.23734 -81.88075 11127 ft 237 kts 209°
2026-04-24 23:14 12.22254 -81.88827 11480 ft 239 kts 209°
2026-04-24 23:14 12.20752 -81.89590 11837 ft 242 kts 208°
2026-04-24 23:14 12.19242 -81.90356 12194 ft 243 kts 208°
2026-04-24 23:14 12.17727 -81.91126 12547 ft 245 kts 208°
2026-04-24 23:15 12.16193 -81.91904 12903 ft 246 kts 208°
2026-04-24 23:15 12.14645 -81.92690 13260 ft 247 kts 209°
2026-04-24 23:15 12.13114 -81.93467 13612 ft 248 kts 208°
2026-04-24 23:15 12.11556 -81.94257 13967 ft 248 kts 208°
2026-04-24 23:16 12.09998 -81.95048 14324 ft 249 kts 208°
2026-04-24 23:16 12.08450 -81.95833 14677 ft 248 kts 208°
2026-04-24 23:16 12.06897 -81.96619 15029 ft 248 kts 208°
2026-04-24 23:16 12.05370 -81.97394 15377 ft 247 kts 208°
2026-04-24 23:17 12.03827 -81.98176 15727 ft 247 kts 208°
2026-04-24 23:17 12.02282 -81.98959 16081 ft 246 kts 208°
2026-04-24 23:17 12.00748 -81.99736 16434 ft 244 kts 208°
2026-04-24 23:17 11.99228 -82.00506 16785 ft 243 kts 209°
2026-04-24 23:18 11.97729 -82.01265 17131 ft 241 kts 208°
2026-04-24 23:18 11.96202 -82.02039 17372 ft 245 kts 208°
2026-04-24 23:18 11.94664 -82.02820 17608 ft 249 kts 208°
2026-04-24 23:18 11.93078 -82.03623 17846 ft 253 kts 208°
2026-04-24 23:19 11.91490 -82.04429 17967 ft 262 kts 208°
2026-04-24 23:19 11.89813 -82.05280 17992 ft 274 kts 208°
2026-04-24 23:19 11.88049 -82.06174 17997 ft 286 kts 208°
2026-04-24 23:19 11.86231 -82.07095 17993 ft 297 kts 208°
2026-04-24 23:20 11.84340 -82.08053 17993 ft 307 kts 208°
2026-04-24 23:20 11.82389 -82.09041 17989 ft 315 kts 208°
2026-04-24 23:20 11.80402 -82.10046 17990 ft 322 kts 208°
2026-04-24 23:20 11.78362 -82.11078 17990 ft 329 kts 208°
2026-04-24 23:21 11.76286 -82.12128 17990 ft 334 kts 208°
2026-04-24 23:21 11.74178 -82.13193 17986 ft 339 kts 208°
2026-04-24 23:21 11.72041 -82.14273 17983 ft 343 kts 208°
2026-04-24 23:21 11.69913 -82.15359 17981 ft 347 kts 208°
2026-04-24 23:22 11.67733 -82.16479 17982 ft 350 kts 208°
2026-04-24 23:22 11.65535 -82.17601 17980 ft 353 kts 208°
2026-04-24 23:22 11.63332 -82.18707 17978 ft 354 kts 208°
2026-04-24 23:22 11.61114 -82.19820 17969 ft 354 kts 208°
2026-04-24 23:23 11.58898 -82.20927 17967 ft 353 kts 207°
2026-04-24 23:23 11.56693 -82.22035 17963 ft 352 kts 208°
2026-04-24 23:23 11.54501 -82.23138 17962 ft 352 kts 208°
2026-04-24 23:23 11.52276 -82.24251 17964 ft 352 kts 207°
2026-04-24 23:24 11.50076 -82.25317 17965 ft 351 kts 207°
2026-04-24 23:24 11.47860 -82.26386 17966 ft 351 kts 207°
2026-04-24 23:24 11.45628 -82.27460 17965 ft 351 kts 207°
2026-04-24 23:24 11.43410 -82.28531 17963 ft 351 kts 207°
2026-04-24 23:25 11.41219 -82.29588 17963 ft 351 kts 207°
2026-04-24 23:25 11.39000 -82.30660 17963 ft 351 kts 207°
2026-04-24 23:25 11.36778 -82.31733 17964 ft 351 kts 207°
2026-04-24 23:25 11.34560 -82.32803 17966 ft 351 kts 207°
2026-04-24 23:26 11.32373 -82.33859 17967 ft 350 kts 207°
2026-04-24 23:26 11.30151 -82.34933 17965 ft 350 kts 207°
2026-04-24 23:26 11.27952 -82.35995 17963 ft 350 kts 207°
2026-04-24 23:26 11.25726 -82.37071 17961 ft 351 kts 207°
2026-04-24 23:27 11.23527 -82.38134 17962 ft 351 kts 207°
2026-04-24 23:27 11.21327 -82.39197 17960 ft 351 kts 207°
2026-04-24 23:27 11.19107 -82.40269 17961 ft 351 kts 207°
2026-04-24 23:27 11.16908 -82.41329 17965 ft 351 kts 207°
2026-04-24 23:28 11.14705 -82.42393 17964 ft 351 kts 207°
2026-04-24 23:28 11.12496 -82.43460 17964 ft 351 kts 207°
2026-04-24 23:28 11.10259 -82.44540 17962 ft 351 kts 207°
2026-04-24 23:28 11.08075 -82.45594 17964 ft 351 kts 207°
2026-04-24 23:29 11.05839 -82.46673 17965 ft 351 kts 207°
2026-04-24 23:29 11.03626 -82.47740 17964 ft 351 kts 207°
2026-04-24 23:29 11.01409 -82.48811 17960 ft 351 kts 207°
2026-04-24 23:29 10.99190 -82.49880 17959 ft 351 kts 207°
2026-04-24 23:30 10.96999 -82.50936 17956 ft 351 kts 207°
2026-04-24 23:30 10.94755 -82.52017 17952 ft 352 kts 207°
2026-04-24 23:30 10.92550 -82.53082 17953 ft 351 kts 207°
2026-04-24 23:30 10.90345 -82.54144 17952 ft 351 kts 207°
2026-04-24 23:31 10.88117 -82.55217 17953 ft 351 kts 207°
2026-04-24 23:31 10.85913 -82.56279 17955 ft 351 kts 207°
2026-04-24 23:31 10.83699 -82.57346 17954 ft 351 kts 207°
2026-04-24 23:31 10.81472 -82.58418 17952 ft 351 kts 207°
2026-04-24 23:32 10.79272 -82.59477 17955 ft 351 kts 207°
2026-04-24 23:32 10.77038 -82.60553 17957 ft 351 kts 207°
2026-04-24 23:32 10.74819 -82.61621 17961 ft 351 kts 207°
2026-04-24 23:32 10.72626 -82.62676 17893 ft 352 kts 207°
2026-04-24 23:33 10.70406 -82.63746 17524 ft 347 kts 207°
2026-04-24 23:33 10.68260 -82.64851 17164 ft 340 kts 208°
2026-04-24 23:33 10.66187 -82.65945 16781 ft 337 kts 209°
2026-04-24 23:33 10.64094 -82.67055 16428 ft 332 kts 209°
2026-04-24 23:34 10.62057 -82.68136 16075 ft 328 kts 209°
2026-04-24 23:34 10.60043 -82.69202 15723 ft 325 kts 209°
2026-04-24 23:34 10.58030 -82.70267 15368 ft 323 kts 209°
2026-04-24 23:34 10.56054 -82.71311 15018 ft 321 kts 209°
2026-04-24 23:35 10.54086 -82.72350 14646 ft 318 kts 209°
2026-04-24 23:35 10.52116 -82.73389 14267 ft 316 kts 209°
2026-04-24 23:35 10.50164 -82.74418 13892 ft 315 kts 209°
2026-04-24 23:35 10.48213 -82.75446 13516 ft 314 kts 208°
2026-04-24 23:36 10.46291 -82.76458 13143 ft 313 kts 208°
2026-04-24 23:36 10.44352 -82.77479 12765 ft 312 kts 209°
2026-04-24 23:36 10.42415 -82.78499 12385 ft 311 kts 209°
2026-04-24 23:36 10.40495 -82.79509 12007 ft 309 kts 209°
2026-04-24 23:37 10.38589 -82.80512 11627 ft 308 kts 208°
2026-04-24 23:37 10.36691 -82.81510 11248 ft 307 kts 208°
2026-04-24 23:37 10.32908 -82.83499 10489 ft 304 kts 209°
2026-04-24 23:38 10.31030 -82.84486 10112 ft 303 kts 208°
2026-04-24 23:38 10.29145 -82.85477 9725 ft 302 kts 209°
2026-04-24 23:38 10.27272 -82.86462 9341 ft 301 kts 208°
2026-04-24 23:38 10.25444 -82.87423 8956 ft 295 kts 209°
2026-04-24 23:39 10.23610 -82.88386 8565 ft 291 kts 208°
2026-04-24 23:39 10.21825 -82.89323 8181 ft 286 kts 208°
2026-04-24 23:39 10.20091 -82.90234 7794 ft 279 kts 209°
2026-04-24 23:39 10.18483 -82.91079 7428 ft 273 kts 209°
2026-04-24 23:40 10.16803 -82.91961 7028 ft 270 kts 208°
2026-04-24 23:40 10.15155 -82.92826 6640 ft 266 kts 208°
2026-04-24 23:40 10.13524 -82.93682 6260 ft 259 kts 208°
2026-04-24 23:40 10.11935 -82.94516 5872 ft 253 kts 208°
2026-04-24 23:41 10.10393 -82.95326 5489 ft 248 kts 208°
2026-04-24 23:41 10.08870 -82.96130 5106 ft 244 kts 208°
2026-04-24 23:41 10.07390 -82.96957 4726 ft 240 kts 212°
2026-04-24 23:41 10.06058 -82.97932 4281 ft 231 kts 219°
2026-04-24 23:42 10.04842 -82.98949 3657 ft 227 kts 220°
2026-04-24 23:42 10.03675 -82.99985 3146 ft 219 kts 221°
2026-04-24 23:42 10.02605 -83.00960 2765 ft 196 kts 221°
2026-04-24 23:42 10.01640 -83.01823 2260 ft 176 kts 219°
2026-04-24 23:43 10.00757 -83.02593 1844 ft 155 kts 218°
2026-04-24 23:43 9.99944 -83.03231 1372 ft 145 kts 209°
2026-04-24 23:43 9.99043 -83.03593 933 ft 138 kts 188°
2026-04-24 23:43 9.98108 -83.03584 556 ft 133 kts 166°
2026-04-24 23:44 9.97296 -83.03232 281 ft 123 kts 143°
2026-04-24 23:44 9.96612 -83.02756 71 ft 113 kts 143°
2026-04-24 23:44 9.96009 -83.02351 10 ft 91 kts 146°
2026-04-24 23:44 9.95548 -83.02041 17 ft 69 kts 146°
2026-04-24 23:45 9.95347 -83.01910 14 ft 6 kts 111°
2026-04-24 23:45 9.95380 -83.01924 15 ft 8 kts 322°
2026-04-24 23:45 9.95462 -83.01981 16 ft 19 kts 326°
2026-04-24 23:45 9.95646 -83.02106 16 ft 28 kts 326°
2026-04-24 23:46 9.95772 -83.02190 13 ft 36 kts 327°
2026-04-24 23:46 9.96002 -83.02345 10 ft 42 kts 326°
2026-04-24 23:46 9.96229 -83.02497 12 ft 30 kts 323°
2026-04-24 23:46 9.96288 -83.02576 12 ft 4 kts 173°